Location: Unspecified
(0.0000°N, 0.0000°E)
Time: 04:01:43
(UTC+00:00)

deb Delta 104 - Pass Details

Date: 14 March 2026
Orbit: 1339 x 1584 km, 100.8° (Epoch: 15 April)

Event Time Altitude Azimuth Distance (km) Brightness Sun altitude
Exits shadow 19:50:30 11° 145° (SE) 3,679 ? -25.3°
Drops below altitude 10° 19:51:02 10° 148° (SSE) 3,789 ? -25.5°
Sets 19:55:01 0° 164° (SSE) 4,776 ? -26.5°
